Location: Unspecified
(43.8044°N, 11.0278°E)
Time: 16:15:25
(UTC+01:00)

CZ-3 Stage 3 - Visible Passes

Search period start: 24 January 2017 00:00
Search period end: 03 February 2017 00:00
Orbit: 434 x 34769 km, 30.5° (Epoch: 22 January)

Date Brightness Start Highest point End Pass type
(mag) Time Alt. Az. Time Alt. Az. Time Alt. Az.
24 Jan 8.0 02:20:16 52° SSW 04:27:11 65° SW 10:43:51 10° S visible
24 Jan 7.7 21:50:58 10° SSE 04:42:05 66° SE 07:05:06 10° ESE visible
25 Jan 9.8 21:17:55 10° ENE 01:09:19 25° E 02:56:07 10° E visible
26 Jan 9.0 05:44:33 18° W 07:19:33 26° W 12:30:40 10° WNW visible
27 Jan 8.0 02:18:05 55° SSW 04:15:55 65° SW 10:34:54 10° S visible
27 Jan 7.6 21:41:37 10° SSE 04:31:28 66° SE 06:56:18 10° ESE visible
28 Jan 9.8 21:05:58 10° ENE 00:59:33 25° E 02:46:57 10° E visible
29 Jan 9.0 05:41:51 19° W 07:10:26 27° W 12:17:58 10° WNW visible
30 Jan 8.0 01:06:12 10° SW 04:04:40 66° SW 10:25:57 10° S visible
30 Jan 7.6 21:32:17 10° SSE 04:20:50 66° SE 06:47:28 10° ESE visible
31 Jan 9.7 20:54:08 10° ENE 00:49:49 25° E 02:37:44 10° E visible
01 Feb 9.0 05:38:20 21° W 07:01:16 27° W 12:05:24 10° WNW visible
02 Feb 8.0 00:57:16 10° SW 03:53:27 66° SW 10:16:57 10° S visible
